�������l�o���
Date,Time,MP-1(��Sv/h),MP-2(��Sv/h),MP-3(��Sv/h),MP-4(��Sv/h),MP-5(��Sv/h),MP-6(��Sv/h),MP-7(��Sv/h),MP-8(��Sv/h),����,����(m/s),���J
2024/01/05,00:00,0.504,0.761,0.479,0.962,0.687,0.310,0.555,0.521,���k��,5.5,��
2024/01/05,00:10,0.503,0.762,0.479,0.962,0.686,0.309,0.554,0.520,�k��,5.1,��
2024/01/05,00:20,0.504,0.763,0.479,0.963,0.688,0.309,0.556,0.520,�k��,5.3,��
2024/01/05,00:30,0.505,0.763,0.480,0.962,0.686,0.310,0.555,0.521,�k��,5.2,��
2024/01/05,00:40,0.503,0.764,0.479,0.963,0.686,0.310,0.552,0.522,���k��,5.1,��
2024/01/05,00:50,0.503,0.761,0.479,0.962,0.687,0.310,0.555,0.520,���k��,6.1,��
2024/01/05,01:00,0.504,0.762,0.480,0.961,0.686,0.309,0.556,0.521,���k��,5.6,��
2024/01/05,01:10,0.503,0.763,0.480,0.963,0.687,0.310,0.555,0.521,���k��,6.2,��
2024/01/05,01:20,0.504,0.762,0.479,0.964,0.687,0.310,0.555,0.520,���k��,6.6,��
2024/01/05,01:30,0.504,0.763,0.480,0.963,0.686,0.311,0.555,0.521,���k��,6.6,��
2024/01/05,01:40,0.504,0.762,0.479,0.962,0.687,0.310,0.554,0.521,���k��,6.8,��
2024/01/05,01:50,0.504,0.763,0.479,0.962,0.685,0.309,0.555,0.523,�k��,7.0,��
2024/01/05,02:00,0.504,0.762,0.480,0.963,0.687,0.310,0.555,0.521,�k��,7.3,��
2024/01/05,02:10,0.502,0.762,0.479,0.961,0.686,0.310,0.554,0.521,�k��,7.1,��
2024/01/05,02:20,0.504,0.762,0.480,0.962,0.688,0.311,0.556,0.521,�k��,7.5,��
2024/01/05,02:30,0.505,0.763,0.480,0.964,0.687,0.310,0.554,0.520,�k��,6.5,��
2024/01/05,02:40,0.505,0.763,0.480,0.960,0.686,0.309,0.556,0.522,�k��,5.6,��
2024/01/05,02:50,0.504,0.763,0.479,0.965,0.686,0.309,0.556,0.522,���k��,4.8,��
2024/01/05,03:00,0.504,0.764,0.480,0.964,0.687,0.309,0.554,0.521,���k��,5.6,��
2024/01/05,03:10,0.506,0.761,0.480,0.963,0.686,0.310,0.553,0.522,���k��,5.0,��
2024/01/05,03:20,0.504,0.763,0.480,0.963,0.685,0.309,0.555,0.520,���k��,5.1,��
2024/01/05,03:30,0.506,0.763,0.481,0.963,0.686,0.310,0.556,0.521,���k��,5.0,��
2024/01/05,03:40,0.505,0.760,0.478,0.963,0.686,0.310,0.554,0.522,���k��,6.2,��
2024/01/05,03:50,0.504,0.762,0.480,0.962,0.686,0.309,0.555,0.521,���k��,5.8,��
2024/01/05,04:00,0.505,0.762,0.480,0.962,0.685,0.309,0.553,0.520,���k��,5.7,��
2024/01/05,04:10,0.504,0.762,0.477,0.962,0.685,0.310,0.554,0.520,�k��,5.3,��
2024/01/05,04:20,0.505,0.760,0.480,0.963,0.685,0.311,0.554,0.521,�k��,4.3,��
2024/01/05,04:30,0.503,0.762,0.480,0.962,0.686,0.309,0.555,0.520,�k��,5.4,��
2024/01/05,04:40,0.503,0.762,0.479,0.962,0.686,0.309,0.554,0.521,���k��,4.2,��
2024/01/05,04:50,0.504,0.763,0.479,0.965,0.687,0.309,0.556,0.521,�k��,3.3,��
2024/01/05,05:00,0.503,0.761,0.478,0.962,0.686,0.310,0.555,0.521,�k��,3.9,��
2024/01/05,05:10,0.502,0.763,0.479,0.961,0.686,0.310,0.555,0.521,�k��,3.6,��
2024/01/05,05:20,0.504,0.759,0.479,0.963,0.685,0.310,0.553,0.521,�k��,3.0,��
2024/01/05,05:30,0.503,0.760,0.480,0.962,0.687,0.310,0.554,0.520,�k��,3.6,��
2024/01/05,05:40,0.505,0.761,0.478,0.964,0.687,0.310,0.554,0.522,���k��,2.3,��
2024/01/05,05:50,0.502,0.762,0.479,0.962,0.685,0.309,0.553,0.520,���k��,1.9,��
2024/01/05,06:00,0.504,0.760,0.478,0.963,0.687,0.310,0.554,0.521,��,2.6,��
2024/01/05,06:10,0.504,0.762,0.478,0.961,0.684,0.308,0.555,0.521,��,2.3,��
2024/01/05,06:20,0.505,0.762,0.479,0.963,0.686,0.309,0.553,0.522,���쐼,1.5,��
2024/01/05,06:30,0.504,0.762,0.481,0.964,0.685,0.309,0.555,0.521,�쐼,2.9,��
2024/01/05,06:40,0.504,0.762,0.479,0.963,0.684,0.310,0.553,0.521,��쐼,3.2,��
2024/01/05,06:50,0.503,0.759,0.479,0.964,0.685,0.309,0.555,0.520,�쐼,3.0,��
2024/01/05,07:00,0.502,0.760,0.478,0.961,0.685,0.308,0.555,0.521,�쐼,3.1,��
2024/01/05,07:10,0.504,0.760,0.478,0.963,0.685,0.309,0.554,0.522,�쐼,2.5,��
2024/01/05,07:20,0.503,0.760,0.478,0.962,0.683,0.309,0.554,0.520,���쐼,2.0,��
2024/01/05,07:30,0.502,0.761,0.479,0.962,0.683,0.310,0.555,0.523,���쐼,1.7,��
2024/01/05,07:40,0.503,0.762,0.479,0.961,0.682,0.309,0.555,0.521,��,1.7,��
2024/01/05,07:50,0.504,0.761,0.478,0.961,0.686,0.309,0.554,0.520,�쐼,1.5,��
2024/01/05,08:00,0.504,0.761,0.478,0.964,0.685,0.309,0.555,0.521,�쐼,2.5,��
2024/01/05,08:10,0.504,0.761,0.479,0.964,0.684,0.310,0.555,0.521,��쐼,3.2,��
2024/01/05,08:20,0.503,0.760,0.477,0.961,0.685,0.310,0.554,0.520,��쐼,3.5,��
2024/01/05,08:30,0.504,0.764,0.479,0.963,0.685,0.309,0.556,0.522,��쐼,3.3,��
2024/01/05,08:40,0.503,0.764,0.480,0.963,0.684,0.310,0.556,0.522,��쐼,2.6,��
2024/01/05,08:50,0.505,0.762,0.479,0.963,0.684,0.310,0.555,0.522,��,2.9,��
2024/01/05,09:00,0.505,0.763,0.480,0.965,0.687,0.310,0.558,0.521,��쐼,1.7,��
2024/01/05,09:10,0.505,0.763,0.481,0.963,0.686,0.310,0.556,0.522,��쐼,1.5,��
2024/01/05,09:20,0.504,0.763,0.479,0.962,0.685,0.310,0.557,0.523,��쓌,2.2,��
2024/01/05,09:30,0.506,0.765,0.481,0.964,0.687,0.310,0.557,0.524,��,0.9,��
2024/01/05,09:40,0.505,0.764,0.481,0.963,0.687,0.311,0.557,0.522,��쓌,1.1,��
2024/01/05,09:50,0.507,0.763,0.482,0.964,0.686,0.310,0.557,0.520,��쓌,3.3,��
2024/01/05,10:00,0.505,0.765,0.480,0.964,0.687,0.310,0.556,0.521,��쓌,3.5,��
2024/01/05,10:10,0.506,0.763,0.480,0.965,0.687,0.311,0.556,0.522,��,3.6,��
2024/01/05,10:20,0.506,0.764,0.480,0.963,0.686,0.311,0.556,0.521,��쓌,2.8,��
2024/01/05,10:30,0.507,0.762,0.481,0.965,0.689,0.310,0.555,0.522,��쓌,4.0,��
2024/01/05,10:40,0.506,0.765,0.480,0.963,0.688,0.311,0.555,0.522,��쓌,4.4,��
2024/01/05,10:50,0.506,0.762,0.481,0.965,0.688,0.311,0.556,0.522,��쓌,4.1,��
2024/01/05,11:00,0.505,0.766,0.481,0.964,0.689,0.311,0.556,0.523,��쓌,4.4,��
2024/01/05,11:10,0.506,0.761,0.481,0.964,0.690,0.310,0.556,0.522,��쓌,4.0,��
2024/01/05,11:20,0.505,0.764,0.482,0.965,0.690,0.312,0.556,0.522,��쓌,6.0,��
2024/01/05,11:30,0.506,0.764,0.481,0.967,0.689,0.312,0.555,0.523,��쓌,5.9,��
2024/01/05,11:40,0.505,0.764,0.482,0.966,0.691,0.311,0.556,0.521,��쓌,6.9,��
2024/01/05,11:50,0.506,0.762,0.481,0.963,0.690,0.312,0.556,0.524,��쓌,6.7,��
2024/01/05,12:00,0.504,0.762,0.482,0.966,0.691,0.311,0.556,0.523,��쓌,7.8,��
2024/01/05,12:10,0.506,0.764,0.483,0.965,0.692,0.311,0.557,0.524,��쓌,9.2,��
2024/01/05,12:20,0.506,0.763,0.482,0.966,0.691,0.312,0.558,0.523,��쓌,8.5,��
2024/01/05,12:30,0.506,0.765,0.482,0.966,0.690,0.313,0.556,0.523,��쓌,8.5,��
2024/01/05,12:40,0.506,0.764,0.483,0.965,0.690,0.313,0.558,0.525,��쓌,9.6,��
2024/01/05,12:50,0.506,0.765,0.482,0.965,0.689,0.312,0.558,0.522,��,8.4,��
2024/01/05,13:00,0.508,0.766,0.482,0.965,0.691,0.313,0.558,0.524,��쓌,10.2,��
2024/01/05,13:10,0.506,0.765,0.484,0.966,0.691,0.311,0.558,0.521,��쓌,10.3,��
2024/01/05,13:20,0.506,0.766,0.483,0.966,0.690,0.312,0.559,0.521,��쓌,10.9,��
2024/01/05,13:30,0.505,0.766,0.483,0.967,0.692,0.313,0.558,0.522,��쓌,8.6,��
2024/01/05,13:40,0.507,0.764,0.482,0.967,0.692,0.314,0.559,0.521,��쓌,9.2,��
2024/01/05,13:50,0.506,0.766,0.483,0.965,0.690,0.313,0.558,0.521,��쓌,8.6,��
2024/01/05,14:00,0.507,0.766,0.481,0.967,0.691,0.312,0.558,0.521,��,5.2,��
2024/01/05,14:10,0.507,0.768,0.484,0.965,0.692,0.314,0.559,0.521,��,4.6,��
2024/01/05,14:20,0.507,0.764,0.483,0.966,0.693,0.312,0.559,0.522,��쐼,4.6,��
2024/01/05,14:30,0.507,0.767,0.483,0.965,0.690,0.312,0.558,0.521,�쐼,9.2,��
2024/01/05,14:40,0.508,0.765,0.483,0.966,0.690,0.314,0.559,0.522,��쐼,10.3,��
2024/01/05,14:50,0.506,0.766,0.485,0.965,0.691,0.313,0.559,0.522,��쐼,8.8,��
2024/01/05,15:00,0.507,0.766,0.483,0.965,0.693,0.313,0.558,0.522,��쐼,7.3,��
2024/01/05,15:10,0.506,0.768,0.486,0.966,0.693,0.315,0.559,0.524,��쐼,5.8,��
2024/01/05,15:20,0.506,0.769,0.483,0.968,0.692,0.313,0.560,0.524,��쐼,3.8,��
2024/01/05,15:30,0.507,0.770,0.484,0.968,0.692,0.312,0.560,0.524,��,3.3,��
2024/01/05,15:40,0.506,0.770,0.485,0.967,0.692,0.313,0.558,0.524,��쐼,1.5,��
2024/01/05,15:50,0.506,0.769,0.486,0.966,0.690,0.313,0.559,0.523,��,1.5,��
2024/01/05,16:00,0.508,0.770,0.484,0.966,0.690,0.313,0.560,0.524,���k��,4.5,��
2024/01/05,16:10,0.507,0.770,0.484,0.965,0.689,0.313,0.559,0.525,���k��,4.4,��
2024/01/05,16:20,0.507,0.770,0.486,0.965,0.691,0.313,0.558,0.523,��,4.4,��
2024/01/05,16:30,0.509,0.769,0.485,0.966,0.689,0.313,0.560,0.523,��,4.7,��
2024/01/05,16:40,0.507,0.769,0.485,0.965,0.691,0.312,0.560,0.524,��,5.4,��
2024/01/05,16:50,0.507,0.768,0.485,0.965,0.694,0.312,0.557,0.523,���쐼,5.2,��
2024/01/05,17:00,0.509,0.767,0.484,0.966,0.694,0.312,0.557,0.523,�쐼,5.6,��
2024/01/05,17:10,0.509,0.768,0.484,0.967,0.693,0.313,0.558,0.523,�쐼,5.5,��
2024/01/05,17:20,0.509,0.770,0.484,0.966,0.693,0.314,0.560,0.526,��쐼,5.0,��
2024/01/05,17:30,0.510,0.768,0.484,0.966,0.690,0.312,0.558,0.523,��쐼,4.4,��
2024/01/05,17:40,0.509,0.768,0.485,0.966,0.694,0.313,0.558,0.524,��쐼,4.3,��
2024/01/05,17:50,0.508,0.769,0.483,0.966,0.693,0.313,0.559,0.524,��,5.9,��
2024/01/05,18:00,0.509,0.768,0.484,0.968,0.692,0.312,0.560,0.524,��,8.0,��
2024/01/05,18:10,0.508,0.769,0.484,0.968,0.691,0.313,0.557,0.523,��쐼,5.9,��
2024/01/05,18:20,0.508,0.770,0.484,0.969,0.692,0.313,0.558,0.524,��쐼,6.4,��
2024/01/05,18:30,0.510,0.771,0.486,0.965,0.693,0.313,0.559,0.525,��쐼,5.7,��
2024/01/05,18:40,0.508,0.768,0.484,0.971,0.692,0.312,0.560,0.524,��,7.0,��
2024/01/05,18:50,0.509,0.769,0.486,0.970,0.691,0.313,0.560,0.522,�쐼,7.1,��
2024/01/05,19:00,0.511,0.769,0.485,0.967,0.692,0.314,0.559,0.523,��쐼,5.3,��
2024/01/05,19:10,0.509,0.770,0.485,0.967,0.693,0.314,0.561,0.524,�쐼,4.4,��
2024/01/05,19:20,0.510,0.769,0.485,0.968,0.693,0.312,0.560,0.524,��쐼,2.5,��
2024/01/05,19:30,0.508,0.771,0.486,0.967,0.691,0.312,0.558,0.524,�쐼,2.6,��
2024/01/05,19:40,0.508,0.769,0.485,0.967,0.692,0.313,0.558,0.522,��쐼,4.1,��
2024/01/05,19:50,0.509,0.768,0.485,0.968,0.694,0.313,0.559,0.524,��쐼,5.0,��
2024/01/05,20:00,0.510,0.769,0.485,0.969,0.693,0.312,0.559,0.523,�쐼,5.5,��
2024/01/05,20:10,0.508,0.770,0.485,0.967,0.694,0.311,0.561,0.524,�쐼,4.2,��
2024/01/05,20:20,0.507,0.769,0.483,0.969,0.691,0.312,0.559,0.524,�쐼,4.1,��
2024/01/05,20:30,0.508,0.769,0.485,0.967,0.694,0.313,0.559,0.524,��쐼,3.6,��
2024/01/05,20:40,0.510,0.768,0.482,0.968,0.692,0.311,0.560,0.522,�쐼,3.0,��
2024/01/05,20:50,0.509,0.769,0.483,0.968,0.693,0.312,0.558,0.524,�쐼,1.5,��
2024/01/05,21:00,0.509,0.770,0.485,0.966,0.694,0.313,0.558,0.523,���쐼,1.1,��
2024/01/05,21:10,0.509,0.768,0.483,0.968,0.692,0.313,0.557,0.521,�쐼,1.1,��
2024/01/05,21:20,0.509,0.768,0.484,0.967,0.692,0.312,0.557,0.522,-,CALM,��
2024/01/05,21:30,0.510,0.769,0.483,0.967,0.693,0.313,0.558,0.522,�k�k��,1.5,��
2024/01/05,21:40,0.509,0.770,0.483,0.967,0.693,0.313,0.557,0.522,�k�k��,1.7,��
2024/01/05,21:50,0.508,0.769,0.483,0.966,0.693,0.314,0.557,0.523,�k��,2.9,��
2024/01/05,22:00,0.509,0.769,0.483,0.969,0.692,0.312,0.559,0.523,�k�k��,2.5,��
2024/01/05,22:10,0.508,0.770,0.483,0.967,0.692,0.313,0.558,0.523,�k��,1.9,��
2024/01/05,22:20,0.509,0.769,0.483,0.968,0.693,0.311,0.558,0.523,�k��,2.5,��
2024/01/05,22:30,0.507,0.767,0.482,0.968,0.692,0.312,0.559,0.522,�k��,2.3,��
2024/01/05,22:40,0.508,0.768,0.484,0.968,0.692,0.312,0.559,0.524,�k��,2.3,��
2024/01/05,22:50,0.509,0.767,0.484,0.967,0.692,0.312,0.558,0.524,�k�k��,1.4,��
2024/01/05,23:00,0.508,0.771,0.484,0.968,0.690,0.313,0.558,0.523,�k�k��,1.5,��
2024/01/05,23:10,0.509,0.770,0.483,0.966,0.692,0.313,0.560,0.523,�k��,1.2,��
2024/01/05,23:20,0.509,0.767,0.484,0.968,0.691,0.311,0.560,0.523,�k�k��,1.5,��
2024/01/05,23:30,0.509,0.768,0.484,0.968,0.693,0.312,0.561,0.523,�k,0.9,��
2024/01/05,23:40,0.508,0.767,0.484,0.966,0.691,0.312,0.560,0.523,�k�k��,1.9,��
2024/01/05,23:50,0.509,0.769,0.485,0.967,0.692,0.313,0.558,0.523,�k��,2.5,��
